Regional Weather Roundup
Issued by NWS

Home | Current Version | Previous Version | Graphics & Text | Print | Product List | Glossary Off
Versions: 1 2 3 4 5 6 7 8 9 10 11 12 13 14 15 16 17 18 19 20 21 22 23 24 25 26 27 28 29 30 31 32 33 34 35 36 37 38 39 40 41 42 43 44 45 46 47 48 49 50

000
ASUS43 KMPX 270401
RWRMN
WEATHER ROUNDUP FOR MINNESOTA
NATIONAL WEATHER SERVICE TWIN CITIES/CHANHASSEN MN
1100 PM CDT TUE AUG 26 2014


NOTE: "FAIR" INDICATES FEW OR NO CLOUDS BELOW 12,000 FEET WITH NO
SIGNIFICANT WEATHER AND/OR OBSTRUCTIONS TO VISIBILITY. N/A MEANS
CURRENT SKY AND/OR WEATHER CONDITIONS ARE NOT AVAILABLE.

MNZ060>063-068>070-270500-
   Twin Cities Metro

CITY           SKY/WX    TMP DP  RH WIND       PRES   REMARKS
TWIN CITIES    CLOUDY    68  54  60 N3        30.17R
ST PAUL        CLOUDY    67  54  63 CALM      30.17R
CRYSTAL        CLOUDY    67  54  63 CALM      30.16R
BLAINE         CLOUDY    66  57  72 CALM      30.17R
LAKEVILLE      MOCLDY    61  57  88 CALM      30.17R
EDEN PRAIRIE   LGT RAIN  66  57  72 CALM      30.16R
SOUTH ST PAUL  CLOUDY    67  55  63 CALM      30.16R
LAKE ELMO      MOCLDY    63  59  88 CALM      30.18R
$$
MNZ001>005-007-008-013>017-022>024-027-028-270500-
   Northwest Minnesota

CITY           SKY/WX    TMP DP  RH WIND       PRES   REMARKS
BEMIDJI        CLOUDY    52  51  95 CALM      30.18R
HALLOCK        CLEAR     54  48  82 SE7       30.14S
ROSEAU         PTCLDY    48  45  87 CALM      30.17S
WARROAD        PTCLDY    46  43  87 CALM      30.18R
THIEF RVR FALL PTCLDY    54  48  82 E7        30.17S
CROOKSTON      PTCLDY    55  54  94 S6        30.17R
FOSSTON        MOCLDY    48  48 100 S3        30.19R
DETROIT LAKES  CLOUDY    59  55  88 CALM      30.20R
MOORHEAD       CLOUDY    61  61 100 CALM      30.19R
PARK RAPIDS    CLOUDY    58  55  90 CALM      30.19R
MAHNOMEN       CLOUDY    56  55  94 CALM      30.18R
$$
MNZ006-009>011-018-025>026-270500-
   North Central Minnesota

CITY           SKY/WX    TMP DP  RH WIND       PRES   REMARKS
BAUDETTE       CLEAR     47  45  93 SW5       30.17R
FLAG ISLAND    CLEAR     55  46  71 W7        30.15R
INTL FALLS     MOCLDY    44  43  96 CALM      30.16R
WASKISH        PTCLDY    48  46  93 CALM      30.18S
BIG FORK       CLOUDY    52  50  93 CALM      30.18S
LONGVILLE      CLOUDY    54  54 100 CALM      30.18R
GRAND RAPIDS   CLOUDY    54  48  82 CALM      30.19R
CRANE LAKE     CLOUDY    50  46  87 CALM      30.18R
ORR            CLOUDY    54  45  71 CALM      30.15S
COOK           LGT RAIN  52  52 100 CALM      30.18S
WALKER         CLOUDY    54  53  98 CALM      30.18R
$$
MNZ012-019>021-037-270500-
   Northeast Minnesota

CITY           SKY/WX    TMP DP  RH WIND       PRES   REMARKS
DULUTH         MOCLDY    57  48  72 N6        30.16S
ELY            CLOUDY    54  46  76 W3        30.17R
HIBBING        LGT RAIN  52  49  89 CALM      30.17F
EVELETH        CLOUDY    57  48  72 NW3       30.19R
DULUTH HARBOR  MOCLDY    63  52  67 NW5       30.16F
TWO HARBORS    MOCLDY    55  48  76 CALM      30.14F
SILVER BAY     PTCLDY    50  50 100 CALM      30.14S
GRAND MARAIS     N/A     58  50  75 CALM      30.13S
G MARAIS ARPRT CLOUDY    54  45  71 W5        30.16S
$$
MNZ029>031-032-039>041-046>048-054>057-064-270500-
   West Central Minnesota

CITY           SKY/WX    TMP DP  RH WIND       PRES   REMARKS
FERGUS FALLS   DRIZZLE   59  57  94 CALM      30.20R
WHEATON        CLOUDY    57  55  94 CALM      30.20S
MORRIS         CLOUDY    61  59  94 N3        30.18R
ALEXANDRIA     CLOUDY    60  57  89 SW5       30.20R
ELBOW LAKE     HVY RAIN  59  57  93 N3        30.19R
WADENA         LGT RAIN  57  55  94 CALM      30.20R
GLENWOOD       CLOUDY    59  57  94 CALM      30.20R
APPLETON       CLOUDY    63  55  77 CALM      30.17S
BENSON         CLOUDY    61  57  88 CALM      30.18S
ORTONVILLE     CLOUDY    61  55  82 CALM      30.18S
MADISON        MOCLDY    63  59  88 CALM      30.19R
WILLMAR        MOCLDY    63  57  82 CALM      30.20R
$$
MNZ033>034-036-042>043-049>051-058-059-270500-
   Central Minnesota

CITY           SKY/WX    TMP DP  RH WIND       PRES   REMARKS
ST CLOUD       CLOUDY    63  58  83 W3        30.19R
SAUK CENTRE    CLOUDY    59  56  90 CALM      30.19R
PAYNESVILLE    HVY RAIN  58  56  96 CALM      30.19R
AITKIN         CLOUDY    57  52  82 CALM      30.18R
PINE RIVER     LGT RAIN  55  55 100 CALM      30.21R
BRAINERD       CLOUDY    58  53  84 CALM      30.19R
STAPLES        RAIN      57  55  94 CALM      30.20R
LONG PRAIRIE     N/A     59  57  94 CALM      30.20R
LITTLE FALLS   CLOUDY    59  55  88 CALM      30.19R
LITCHFIELD     DRIZZLE   64  57  77 N5        30.20R
BUFFALO        LGT RAIN  64  54  70 CALM      30.19R
MAPLE LAKE     DRIZZLE   62  59  88 NW3       30.20R
$$
MNZ037-044-045-052-053-270500-
   East Central Minnesota

CITY           SKY/WX    TMP DP  RH WIND       PRES   REMARKS
PRINCETON      CLOUDY    63  57  82 W1        30.18R
MORA           LGT RAIN  55  52  88 CALM      30.19R
CAMBRIDGE      LGT RAIN  63  54  72 CALM      30.16R
RUSH CITY      CLOUDY    59  57  92 CALM      30.17R
MOOSE LAKE     CLOUDY    55  50  82 CALM      30.16S
HINCKLEY       CLOUDY    59  54  82 N5        30.17R
CLOQUET        CLOUDY    55  48  76 N3        30.16F
MCGREGOR       CLOUDY    55  52  88 CALM      30.18R
$$
MNZ071>073-080-081-089-090-097-098-270500-
   Southwest Minnesota

CITY           SKY/WX    TMP DP  RH WIND       PRES   REMARKS
MONTEVIDEO     MOCLDY    61  57  88 CALM      30.19R
GRANITE FALLS  CLOUDY    62  57  84 CALM      30.20R
CANBY          CLOUDY    60  57  89 CALM      30.20R
MARSHALL       CLOUDY    63  55  77 CALM      30.18R
REDWOOD FALLS  CLOUDY    64  57  78 N5        30.18R
OLIVIA         CLOUDY    63  55  77 N3        30.18R
PIPESTONE      CLOUDY    63  55  77 SE3       30.20R
WINDOM         PTCLDY    61  55  82 CALM      30.19R
WORTHINGTON    MOCLDY    59  57  94 SE3       30.20R
JACKSON        MOCLDY    59  54  82 E5        30.19S
TRACY          CLOUDY    64  59  81 CALM      30.20R
SLAYTON        PTCLDY    60  57  90 CALM      30.21R
$$
MNZ065>067-074>077-082>085-091>093-270500-
   South Central Minnesota

CITY           SKY/WX    TMP DP  RH WIND       PRES   REMARKS
MANKATO        CLOUDY    63  54  72 CALM      30.17S
NEW ULM        MOCLDY    64  57  77 CALM      30.17R
ST JAMES       MOCLDY    61  57  88 CALM      30.18S
FAIRMONT       PTCLDY    57  54  88 CALM      30.17S
GLENCOE        CLOUDY    65  56  72 CALM      30.17R
FARIBAULT      MOCLDY    63  55  77 CALM      30.17S
OWATONNA       PTCLDY    57  55  94 CALM      30.17S
WASECA         CLOUDY    55  52  88 CALM      30.19S
ALBERT LEA       N/A     61  59  94 CALM      30.18R
$$
MNZ078>079-086>088-094>096-270500-
   Southeast Minnesota

CITY           SKY/WX    TMP DP  RH WIND       PRES   REMARKS
ROCHESTER      MOCLDY    62  56  80 CALM      30.18S
RED WING       PTCLDY    61  57  88 CALM      30.15S
STANTON        MOCLDY    61  57  88 CALM      30.15S
DODGE CENTER   PTCLDY    61  57  88 CALM      30.18R
WINONA         MOCLDY    63  59  88 CALM      30.15S
AUSTIN         MOCLDY    61  57  88 CALM      30.17S
PRESTON        MOCLDY    60  60  99 CALM      30.18R
$$
ABBREVIATIONS USED IN REMARKS
   TC - TEMPERATURES IN CELSIUS
  WCI - WIND CHILL INDEX
   HX - HEAT INDEX
  VSB - VISIBILITY
$$


USA.gov is the U.S. government's official web portal to all federal, state and local government web resources and services.